Wind_Speed
13 12 12 12 12 12 12 12 12 13 13 13 13 13 12 13 13 13 13 12 11 10 10 9 9 8 7 6 6 6 5 4 4 3 3 3 2 1 1 2 2 2 2
14 13 13 13 12 12 13 13 13 13 13 13 13 13 13 13 14 14 15 13 12 12 11 10 9 9 8 8 7 6 6 5 5 4 4 3 2 2 1 1 1 1 2
15 14 14 13 13 13 13 13 14 14 14 14 14 13 13 13 13 13 14 13 13 13 12 11 10 10 9 8 7 7 6 5 5 5 4 3 3 2 2 1 1 1 1
16 16 14 14 14 14 14 14 14 14 14 14 13 13 13 13 13 14 13 13 13 13 13 12 11 10 10 9 8 7 7 7 6 5 5 4 3 3 3 2 2 2 1
17 16 15 14 15 14 14 13 14 13 13 13 13 13 13 12 12 13 12 12 12 12 12 12 11 10 10 9 8 8 8 8 7 7 6 6 5 4 4 3 3 3 2
17 15 15 14 14 14 14 13 13 12 12 12 12 12 12 13 13 13 13 13 12 12 12 13 12 11 10 10 10 10 9 9 9 8 8 7 6 6 5 5 4 4 3
17 16 15 14 14 14 13 13 12 12 12 12 12 11 11 13 13 13 13 14 14 13 14 14 12 12 11 12 11 11 11 11 10 10 9 8 8 7 7 6 6 6 5
19 17 15 14 13 13 13 12 12 12 12 12 12 11 12 12 13 13 13 14 14 14 14 15 13 13 13 13 13 12 12 12 12 11 10 10 9 8 8 8 8 8 7
19 18 16 14 14 14 14 13 13 13 13 12 11 11 11 12 13 14 14 14 14 14 15 15 14 14 14 13 13 13 12 12 12 11 11 11 10 10 10 10 9 9 9
20 18 16 15 15 14 14 14 14 13 13 12 12 11 12 12 13 14 14 14 15 15 15 15 15 14 14 14 13 13 13 13 13 13 12 12 13 12 12 12 12 11 11
20 20 18 16 15 15 14 14 14 14 13 13 12 12 12 13 13 14 14 14 14 15 14 14 15 15 15 15 14 14 14 14 14 14 14 14 14 14 14 14 14 13 13
20 19 18 16 16 15 15 15 14 14 14 14 13 13 12 13 13 14 14 15 15 15 15 15 15 16 16 16 16 15 15 15 15 15 15 15 16 16 15 15 14 14 14
19 19 19 17 16 16 16 15 15 15 15 15 14 14 13 13 14 15 15 15 15 16 16 16 16 16 17 18 17 17 16 16 16 16 16 16 17 17 17 16 15 16 16
19 19 18 17 16 16 17 16 15 15 15 15 15 15 15 15 16 15 15 15 15 16 17 17 18 17 18 18 18 18 18 18 18 18 18 18 18 18 17 17 17 17 17
19 19 19 17 17 17 17 16 16 15 14 14 14 15 16 16 17 17 16 16 16 16 16 17 17 17 18 18 19 19 19 19 20 20 20 20 19 19 19 19 19 19 19
19 19 18 17 17 17 16 16 15 15 14 14 15 16 17 17 17 17 17 17 17 16 16 16 18 18 18 18 19 20 20 19 20 22 21 21 20 21 21 21 21 22 22
20 19 19 18 18 17 16 16 15 15 14 14 15 15 16 17 17 17 17 17 16 16 16 16 18 19 19 18 19 20 20 20 21 21 21 21 22 22 23 23 23 24 25
20 20 19 18 18 17 17 16 16 15 14 15 14 14 15 15 16 17 17 17 17 17 18 18 17 18 19 19 19 20 20 20 19 20 21 22 22 23 24 24 25 25 26
20 20 20 19 18 18 17 17 15 15 15 14 14 14 15 15 15 16 17 17 18 18 17 16 17 18 18 18 19 19 19 20 20 21 21 22 23 23 24 25 26 27 27
21 20 20 19 18 18 17 16 16 15 14 14 15 15 15 16 16 16 16 17 17 17 18 17 17 17 17 18 18 18 19 19 20 21 21 22 22 23 24 25 26 27 28
21 21 20 19 18 18 18 17 16 16 15 15 15 15 15 16 16 16 17 17 17 18 18 17 17 17 17 17 18 18 19 19 20 21 22 23 23 24 25 26 27 28 30
20 20 20 19 19 18 18 17 17 16 16 16 15 15 15 15 16 17 17 18 18 18 18 18 18 19 19 18 18 18 19 20 21 22 23 24 25 26 27 28 29 30 32
20 20 20 20 19 19 18 18 18 17 17 17 16 15 15 15 15 16 17 17 18 18 18 18 19 19 19 19 20 20 21 21 22 23 25 26 27 28 29 30 31 33 34
20 20 21 20 20 20 19 18 18 18 18 17 17 16 16 16 16 16 17 17 18 19 19 19 20 20 21 21 21 21 22 23 24 25 26 27 28 29 29 30 32 33 33
21 21 20 20 20 20 19 19 19 19 18 18 17 17 17 17 17 17 17 18 19 19 20 21 22 22 22 22 23 24 24 25 26 27 28 28 30 31 31 31 33 34 34
21 21 21 20 20 20 20 19 19 18 18 18 18 18 18 18 18 18 19 20 20 21 22 23 23 24 24 24 25 25 26 27 27 28 28 29 30 31 32 32 34 35 36
Wind_Direction
278 278 279 281 283 284 286 289 290 288 285 287 289 279 267 260 255 249 246 249 249 251 253 255 255 254 256 259 266 270 270 271 273 274 283 294 309 343 355 2 9 16 27
274 277 278 278 280 284 287 289 291 290 285 282 284 276 267 263 255 248 245 248 248 251 250 250 251 254 257 259 264 264 261 267 275 277 280 282 287 297 320 343 358 6 16
272 275 276 275 276 282 288 290 290 288 285 280 280 275 266 261 255 248 243 245 245 246 247 248 252 256 258 259 260 259 256 261 269 271 271 264 266 271 277 292 315 341 3
269 271 271 272 274 280 286 290 289 286 284 281 279 274 267 259 254 247 243 244 241 243 244 248 251 257 257 255 255 256 255 257 262 268 263 260 265 267 268 275 282 290 306
269 271 269 271 274 280 285 288 290 286 285 282 279 271 264 256 251 246 244 243 243 243 244 246 249 252 252 254 255 256 258 257 256 260 260 260 265 268 263 259 266 272 277
268 270 271 272 276 280 284 288 289 286 284 285 279 270 262 256 253 248 245 243 244 246 245 245 247 249 249 249 252 255 257 257 256 256 258 257 262 265 262 262 269 270 272
267 269 270 273 275 280 281 284 283 284 284 288 282 271 262 254 251 248 245 244 245 247 247 245 245 247 247 248 252 255 257 257 257 257 258 256 259 261 261 265 270 268 267
266 268 268 271 274 279 282 281 278 279 281 284 280 271 262 256 249 244 245 243 245 246 247 246 246 245 247 248 251 254 258 256 256 258 256 257 257 257 259 263 266 267 269
261 264 268 270 273 279 281 280 280 279 279 280 277 271 263 257 250 243 243 245 246 247 244 242 245 246 245 245 251 253 256 256 255 256 255 254 257 257 258 259 262 264 268
257 262 267 270 271 276 279 276 276 280 279 277 275 271 263 257 250 244 244 248 247 246 243 242 242 244 244 248 256 257 257 257 255 255 255 255 258 259 260 262 263 266 269
255 259 262 265 270 274 279 277 274 276 278 274 271 269 265 256 249 247 248 250 248 242 242 243 243 245 246 249 256 259 259 257 254 253 255 256 258 260 259 261 262 265 266
255 260 261 263 269 272 276 279 272 272 274 272 269 267 261 255 253 251 252 252 250 246 245 247 247 248 250 254 258 259 260 258 254 254 256 257 260 261 259 261 262 263 264
253 257 260 263 267 271 275 276 272 272 273 271 267 263 257 253 253 253 254 253 251 251 251 252 252 252 254 257 259 260 260 257 256 258 259 259 261 260 259 258 261 263 265
252 255 260 263 266 271 274 275 273 271 273 272 267 263 258 255 254 254 253 254 253 253 253 254 255 254 257 259 260 261 260 256 254 256 260 262 260 260 260 260 262 264 264
252 255 259 263 265 269 272 274 274 271 271 269 266 261 257 256 256 255 254 253 256 255 254 257 258 257 258 260 262 262 261 257 254 255 258 260 259 258 261 260 261 263 264
253 255 258 261 263 266 269 273 273 272 269 267 265 262 256 254 255 255 255 254 257 256 258 260 260 260 263 263 263 262 261 258 257 257 258 259 260 261 261 262 262 263 266
252 254 257 260 262 265 268 271 272 270 266 264 263 264 257 254 254 253 253 254 258 259 262 262 262 261 263 263 264 262 260 258 258 258 260 262 263 265 265 265 265 268 270
251 253 255 258 262 264 265 268 267 265 266 263 263 265 260 256 256 254 253 253 256 261 263 263 263 262 263 266 266 263 260 260 261 261 261 262 264 267 268 268 269 271 272
253 255 255 258 260 262 264 265 263 262 264 263 262 264 263 261 259 257 255 255 256 260 261 265 265 264 266 265 267 263 262 262 260 260 261 264 267 268 269 270 272 274 275
252 254 255 258 261 263 262 263 261 259 262 263 262 262 264 265 262 260 259 258 259 261 262 265 267 267 267 266 265 263 263 261 259 260 263 267 269 269 272 274 274 275 277
253 253 255 257 258 259 262 261 258 258 259 262 264 265 265 264 262 261 262 261 262 263 265 267 267 267 269 268 266 263 263 262 263 264 266 269 271 272 273 275 276 278 280
251 252 254 256 256 257 259 260 258 259 261 262 264 266 265 263 261 262 262 261 263 264 265 267 268 268 268 268 267 263 262 262 264 266 268 270 271 273 274 276 278 279 281
249 251 254 257 256 256 257 258 258 259 261 262 265 264 264 264 263 263 263 263 265 267 268 269 270 270 268 268 268 266 266 266 267 269 271 273 273 275 276 278 280 282 282
249 252 253 256 254 254 254 256 257 259 259 260 262 264 264 265 265 265 265 264 265 267 269 271 272 271 269 269 269 270 272 273 274 274 274 275 276 278 279 281 283 283 284
248 249 249 251 251 251 252 253 255 257 259 260 262 264 263 264 264 267 269 269 268 270 271 273 272 272 271 270 270 270 272 273 274 275 277 278 279 279 280 282 283 284 284
245 247 249 248 248 248 248 250 253 255 258 261 262 263 265 267 268 269 270 272 273 273 273 274 273 273 273 273 272 273 274 275 276 277 278 279 279 280 282 284 285 286 287
Height
5875 5876 5876 5876 5876 5877 5877 5877 5877 5877 5877 5877 5878 5878 5879 5880 5882 5883 5884 5885 5887 5888 5889 5890 5891 5892 5892 5893 5893 5894 5894 5895 5895 5896 5896 5896 5896 5897 5897 5897 5897 5897 5897
5873 5874 5874 5874 5874 5874 5874 5874 5874 5874 5874 5875 5875 5876 5877 5877 5879 5881 5882 5884 5885 5886 5887 5888 5890 5890 5891 5892 5892 5893 5894 5894 5895 5895 5896 5896 5897 5896 5897 5897 5897 5897 5897
5870 5871 5871 5871 5872 5872 5872 5872 5871 5871 5872 5872 5872 5872 5873 5874 5876 5878 5880 5881 5883 5885 5886 5887 5888 5889 5890 5891 5891 5892 5893 5893 5894 5895 5895 5896 5896 5896 5896 5896 5896 5896 5896
5867 5868 5868 5868 5869 5869 5869 5869 5869 5869 5868 5869 5869 5870 5871 5872 5873 5875 5877 5879 5881 5883 5884 5886 5887 5888 5889 5889 5890 5891 5892 5892 5893 5894 5894 5895 5895 5895 5895 5896 5896 5896 5896
5864 5865 5866 5866 5866 5866 5866 5866 5866 5865 5865 5866 5866 5867 5868 5869 5871 5873 5875 5877 5879 5880 5882 5884 5885 5886 5887 5888 5889 5890 5890 5891 5892 5892 5893 5894 5894 5894 5895 5895 5895 5895 5895
5861 5862 5862 5863 5863 5864 5864 5863 5863 5862 5862 5863 5864 5865 5865 5867 5868 5870 5872 5875 5877 5878 5880 5882 5883 5884 5885 5886 5887 5888 5889 5889 5890 5891 5891 5892 5892 5893 5893 5894 5894 5894 5895
5858 5859 5859 5860 5861 5861 5861 5861 5861 5860 5860 5861 5861 5862 5863 5864 5866 5868 5870 5872 5874 5876 5877 5879 5880 5882 5883 5884 5885 5886 5887 5887 5888 5889 5889 5890 5891 5891 5892 5892 5893 5893 5893
5855 5856 5856 5857 5858 5858 5858 5858 5858 5858 5858 5858 5858 5859 5860 5862 5863 5865 5867 5869 5871 5873 5874 5876 5877 5878 5880 5881 5882 5883 5884 5885 5885 5886 5887 5888 5889 5889 5890 5891 5891 5892 5892
5852 5853 5853 5854 5855 5855 5855 5855 5855 5856 5855 5855 5856 5856 5857 5859 5860 5862 5864 5866 5868 5869 5871 5872 5874 5875 5877 5878 5880 5881 5881 5882 5883 5884 5885 5886 5886 5887 5888 5888 5889 5890 5890
5848 5849 5850 5851 5852 5852 5852 5852 5853 5853 5853 5853 5853 5854 5855 5856 5858 5859 5861 5863 5864 5865 5867 5868 5870 5872 5874 5875 5877 5878 5878 5879 5880 5881 5882 5883 5884 5885 5885 5886 5886 5887 5887
5845 5845 5846 5847 5849 5849 5849 5850 5850 5850 5850 5850 5851 5852 5852 5853 5855 5857 5859 5860 5861 5862 5864 5865 5867 5869 5870 5872 5873 5874 5875 5876 5877 5878 5879 5880 5881 5881 5882 5882 5883 5884 5884
5842 5842 5842 5844 5845 5846 5847 5847 5847 5847 5848 5848 5848 5849 5850 5851 5852 5854 5855 5857 5858 5859 5861 5862 5864 5865 5867 5868 5869 5870 5871 5872 5873 5874 5875 5876 5877 5878 5878 5879 5880 5880 5881
5838 5839 5839 5841 5842 5843 5843 5843 5844 5844 5844 5844 5845 5846 5847 5848 5849 5850 5852 5853 5854 5856 5857 5859 5860 5861 5863 5864 5865 5866 5867 5868 5869 5870 5871 5872 5873 5874 5874 5875 5876 5876 5877
5835 5836 5836 5837 5839 5839 5839 5840 5840 5840 5840 5841 5841 5842 5844 5845 5846 5847 5848 5849 5851 5852 5853 5855 5856 5857 5858 5860 5861 5862 5863 5864 5865 5866 5867 5868 5868 5869 5870 5870 5871 5872 5872
5831 5832 5833 5834 5835 5836 5836 5836 5836 5836 5837 5837 5838 5839 5840 5841 5842 5843 5845 5846 5847 5848 5850 5851 5852 5853 5854 5855 5856 5857 5858 5859 5860 5861 5862 5863 5864 5865 5865 5866 5867 5867 5868
5827 5828 5829 5831 5831 5832 5832 5832 5832 5832 5833 5833 5834 5835 5836 5837 5838 5839 5841 5842 5843 5844 5845 5847 5848 5849 5850 5851 5851 5852 5853 5854 5855 5856 5857 5858 5859 5860 5860 5861 5861 5862 5862
5822 5824 5826 5827 5828 5828 5828 5829 5829 5828 5829 5830 5831 5831 5832 5833 5834 5835 5837 5838 5839 5840 5841 5842 5843 5844 5845 5845 5846 5847 5848 5849 5850 5851 5852 5853 5854 5854 5855 5855 5856 5856 5856
5819 5820 5821 5823 5823 5824 5824 5825 5825 5825 5825 5826 5827 5828 5828 5829 5830 5831 5833 5834 5835 5836 5837 5838 5839 5839 5840 5840 5841 5841 5842 5843 5845 5846 5847 5847 5848 5848 5849 5849 5849 5849 5849
5814 5816 5817 5818 5818 5819 5821 5821 5821 5821 5822 5823 5823 5824 5824 5825 5826 5827 5829 5830 5831 5832 5833 5833 5834 5835 5836 5836 5836 5836 5837 5839 5840 5841 5842 5842 5842 5843 5843 5843 5843 5843 5842
5810 5811 5812 5814 5814 5816 5817 5817 5817 5818 5819 5819 5820 5820 5821 5822 5822 5824 5825 5826 5827 5828 5829 5829 5830 5831 5831 5831 5832 5832 5833 5834 5834 5835 5836 5836 5837 5837 5836 5836 5836 5836 5835
5805 5807 5808 5809 5810 5811 5812 5813 5814 5815 5816 5816 5817 5817 5818 5818 5819 5820 5821 5822 5823 5824 5825 5825 5826 5826 5827 5827 5827 5827 5828 5828 5829 5830 5830 5831 5831 5830 5830 5830 5829 5828 5827
5800 5802 5803 5805 5806 5807 5808 5809 5810 5811 5812 5813 5813 5814 5814 5815 5815 5816 5817 5818 5818 5819 5820 5821 5821 5822 5822 5822 5822 5822 5822 5823 5823 5824 5824 5824 5824 5824 5823 5822 5821 5820 5819
5796 5797 5799 5800 5802 5803 5804 5805 5806 5807 5808 5809 5810 5810 5811 5811 5812 5812 5813 5814 5814 5815 5816 5816 5816 5817 5817 5817 5817 5817 5817 5817 5817 5818 5818 5817 5817 5816 5815 5814 5813 5812 5810
5791 5792 5794 5795 5797 5798 5800 5801 5802 5803 5804 5805 5806 5806 5807 5808 5808 5808 5809 5809 5809 5810 5810 5811 5811 5811 5811 5811 5812 5812 5812 5811 5811 5811 5810 5810 5809 5809 5807 5806 5804 5803 5801
5786 5787 5789 5790 5792 5793 5795 5797 5798 5799 5800 5801 5802 5802 5803 5803 5804 5804 5804 5804 5805 5805 5805 5805 5805 5805 5805 5805 5806 5805 5805 5805 5804 5804 5803 5802 5801 5800 5799 5797 5796 5794 5792
5781 5782 5784 5785 5786 5788 5790 5792 5793 5794 5795 5796 5797 5798 5798 5799 5799 5800 5800 5799 5799 5799 5799 5799 5799 5798 5799 5798 5798 5798 5798 5797 5797 5796 5795 5794 5793 5791 5790 5788 5786 5784 5782